Regional Weather Roundup
Issued by NWS

Home | Current Version | Previous Version | Graphics & Text | Print | Product List | Glossary On
Versions: 1 2 3 4 5 6 7 8 9 10 11 12 13 14 15 16 17 18 19 20 21 22 23 24 25 26 27 28 29 30 31 32 33 34 35 36 37 38 39 40 41 42 43 44 45 46 47 48 49 50
000
ASUS44 KMEG 261010
RWRTN
TENNESSEE HOURLY STATE WEATHER ROUNDUP
NATIONAL WEATHER SERVICE MEMPHIS TN
500 AM CDT THU MAY 26 2016

TNZ002-004-019-021-049-052-054-088>092-261100-
WEST TENNESSEE

CITY           SKY/WX    TMP DP  RH WIND       PRES   REMARKS
MEMPHIS INTL   MOCLDY    75  67  76 S12       30.03S
NWS MEMPHIS      N/A     71 N/A N/A MISG        N/A
JACKSON        MOCLDY    71  64  78 S12       30.05S
DYERSBURG      PTCLDY    66  61  82 S6        30.03S
UNION CITY     CLEAR     64  64 100 SE3       30.03R
PARIS          PTCLDY    66  61  82 S9        30.06S
LEXINGTON      CLEAR     61  61 100 CALM      30.07S
$$

TNZ008-025-027-028-033-062-065-066-261100-
NORTH MIDDLE TENNESSEE

CITY           SKY/WX    TMP DP  RH WIND       PRES   REMARKS
NASHVILLE      MOCLDY    65  62  90 S6        30.11S
CLARKSVILLE    PTCLDY    63  61  93 SE6       30.07S
SMYRNA         PTCLDY    65  65 100 S5        30.12S
CROSSVILLE     CLOUDY    64  61  90 N7        30.21R
$$

TNZ061-075-076-078-094-096-097-261100-
SOUTH MIDDLE TENNESSEE

CITY           SKY/WX    TMP DP  RH WIND       PRES   REMARKS
FAYETTEVILLE   MOCLDY    66  61  82 S5        30.14S
TULLAHOMA      CLEAR     61  61 100 CALM      30.16S
WINCHESTER     MOCLDY    63  59  88 CALM      30.16R
MCMINNVILLE    PTCLDY    64  64 100 CALM      30.15S
COLUMBIA       MOCLDY    72  70  94 SW6       30.09S
SHELBYVILLE    PTCLDY    64  63  94 SE5       30.14S
$$

TNZ017-018-042-046-047-261100-
NORTHEAST TENNESSEE

CITY           SKY/WX    TMP DP  RH WIND       PRES   REMARKS
TRI CITIES     CLOUDY    65  63  93 CALM      30.18R FOG
$$

TNZ012-013-036-069-073-074-261100-
CENTRAL EAST TENNESSEE

CITY           SKY/WX    TMP DP  RH WIND       PRES   REMARKS
KNOXVILLE      CLOUDY    68  59  73 CALM      30.16R
OAK RIDGE      CLOUDY    68  59  73 SW3       30.17R
GATLINBURG     CLEAR     63  59  88 CALM      30.17R
$$

TNZ083-085-099-261100-
SOUTHEAST TENNESSEE

CITY           SKY/WX    TMP DP  RH WIND       PRES   REMARKS
CHATTANOOGA    CLOUDY    67  63  87 N3        30.16R
$$

SKY/WX REPORTED AS FAIR MEANS FEW OR NO CLOUDS BELOW
12 THOUSAND FEET.




USA.gov is the U.S. government's official web portal to all federal, state and local government web resources and services.